Location: Goettingen
(51.5300°N, 9.9433°E)
Time: 07:22:59
(UTC+01:00)

ISS - Visible Passes

Search period start: 01 December 2021 00:00
Search period end: 11 December 2021 00:00
Orbit: 417 x 423 km, 51.6° (Epoch: 01 December)

Date Brightness Start Highest point End Pass type
(mag) Time Alt. Az. Time Alt. Az. Time Alt. Az.
01 Dec -3.7 17:07:42 10° W 17:11:07 86° N 17:14:26 11° E visible
01 Dec -3.0 18:44:34 10° W 18:47:25 52° WSW 18:47:25 52° WSW visible
02 Dec -3.6 17:57:22 10° W 18:00:46 74° SSW 18:02:15 31° ESE visible
02 Dec -0.6 19:34:25 10° W 19:35:15 15° W 19:35:15 15° W visible
03 Dec -3.7 17:10:09 10° W 17:13:34 86° S 17:16:59 10° E visible
03 Dec -2.3 18:47:05 10° W 18:50:10 34° SSW 18:50:10 34° SSW visible
04 Dec -2.8 17:59:48 10° W 18:03:05 45° SSW 18:05:12 19° SE visible
04 Dec -0.4 19:37:52 10° WSW 19:38:13 11° WSW 19:38:13 11° WSW visible
05 Dec -3.2 17:12:34 10° W 17:15:56 59° SSW 17:19:16 10° ESE visible
05 Dec -1.2 18:49:56 10° W 18:52:16 17° SW 18:53:26 15° SSW visible
06 Dec -1.5 18:02:24 10° W 18:05:13 24° SSW 18:08:02 10° SSE visible
07 Dec -1.9 17:15:01 10° W 17:18:07 33° SSW 17:21:13 10° SE visible
08 Dec -0.5 18:05:50 10° WSW 18:07:09 12° SW 18:08:28 10° SSW visible
09 Dec -0.7 17:17:49 10° W 17:20:07 17° SW 17:22:25 10° S visible
